Time,TemperatureF,DewpointF,PressureIn,WindDirection,WindDirectionDegrees,WindSpeedMPH,WindSpeedGustMPH,Humidity,HourlyPrecipIn,Conditions,Clouds,dailyrainin,SoftwareType,DateUTC
2013-08-17 00:01:00,80.6,74.4,30.02,East,90,0.0,0.0,81,0.00,,,0.00,WUHU216HW,2013-08-17 04:01:00,
2013-08-17 00:06:00,80.5,74.2,30.01,East,90,0.0,0.0,81,0.00,,,0.00,WUHU216HW,2013-08-17 04:06:00,
2013-08-17 00:11:00,80.5,74.2,30.01,ESE,113,0.7,0.7,81,0.00,,,0.00,WUHU216HW,2013-08-17 04:11:00,
2013-08-17 00:16:00,80.3,74.0,30.01,ESE,113,0.0,0.7,81,0.00,,,0.00,WUHU216HW,2013-08-17 04:16:00,
2013-08-17 00:22:00,80.5,74.2,30.01,ESE,113,0.0,0.2,81,0.00,,,0.00,WUHU216HW,2013-08-17 04:22:00,
2013-08-17 00:27:00,80.3,74.0,30.01,ESE,113,0.4,0.4,81,0.00,,,0.00,WUHU216HW,2013-08-17 04:27:00,
2013-08-17 00:32:00,80.3,74.0,30.01,ESE,113,0.0,0.4,81,0.00,,,0.00,WUHU216HW,2013-08-17 04:32:00,
2013-08-17 00:37:00,80.3,74.0,30.00,ESE,113,0.0,0.4,81,0.00,,,0.00,WUHU216HW,2013-08-17 04:37:00,
2013-08-17 00:42:00,80.3,74.0,30.00,ESE,113,0.7,0.7,81,0.00,,,0.00,WUHU216HW,2013-08-17 04:42:00,
2013-08-17 00:47:00,80.3,74.0,30.00,East,90,0.2,0.7,81,0.00,,,0.00,WUHU216HW,2013-08-17 04:47:00,
2013-08-17 00:52:00,80.3,74.0,30.01,East,90,0.0,0.4,81,0.00,,,0.00,WUHU216HW,2013-08-17 04:52:00,
2013-08-17 00:57:00,80.3,74.0,30.01,East,90,0.0,0.2,81,0.00,,,0.00,WUHU216HW,2013-08-17 04:57:00,
2013-08-17 01:02:00,80.3,74.0,30.00,East,90,0.0,0.4,81,0.00,,,0.00,WUHU216HW,2013-08-17 05:02:00,
2013-08-17 01:07:00,80.3,74.0,30.01,East,90,0.2,0.9,81,0.00,,,0.00,WUHU216HW,2013-08-17 05:07:00,
2013-08-17 01:12:00,80.1,73.8,30.00,ENE,68,0.0,0.9,81,0.00,,,0.00,WUHU216HW,2013-08-17 05:12:00,
2013-08-17 01:18:00,80.1,73.8,30.00,ENE,68,0.0,0.4,81,0.00,,,0.00,WUHU216HW,2013-08-17 05:18:00,
2013-08-17 01:23:00,80.1,73.8,30.00,ENE,68,0.0,0.0,81,0.00,,,0.00,WUHU216HW,2013-08-17 05:23:00,
2013-08-17 01:28:00,80.1,73.8,30.00,ENE,68,0.0,0.0,81,0.00,,,0.00,WUHU216HW,2013-08-17 05:28:00,
2013-08-17 01:33:00,80.1,73.8,30.00,ENE,68,0.2,0.4,81,0.00,,,0.00,WUHU216HW,2013-08-17 05:33:00,
2013-08-17 01:38:00,79.9,73.6,30.00,East,90,0.4,1.1,81,0.00,,,0.00,WUHU216HW,2013-08-17 05:38:00,
2013-08-17 01:43:00,80.1,73.8,30.00,East,90,0.0,1.1,81,0.00,,,0.00,WUHU216HW,2013-08-17 05:43:00,
2013-08-17 01:48:00,80.1,73.8,30.00,East,90,0.0,0.4,81,0.00,,,0.00,WUHU216HW,2013-08-17 05:48:00,
2013-08-17 01:53:00,80.1,73.8,30.00,East,90,0.0,0.4,81,0.00,,,0.00,WUHU216HW,2013-08-17 05:53:00,
2013-08-17 01:58:00,79.9,73.6,30.00,East,90,0.0,0.2,81,0.00,,,0.00,WUHU216HW,2013-08-17 05:58:00,
2013-08-17 02:03:00,79.9,73.6,30.00,East,90,0.0,0.2,81,0.00,,,0.00,WUHU216HW,2013-08-17 06:03:00,
2013-08-17 02:08:00,79.9,73.6,30.00,East,90,0.4,0.4,81,0.00,,,0.00,WUHU216HW,2013-08-17 06:08:00,
2013-08-17 02:13:00,79.9,73.6,30.00,ESE,113,0.0,0.4,81,0.00,,,0.00,WUHU216HW,2013-08-17 06:13:00,
2013-08-17 02:19:00,79.9,73.6,30.00,East,90,0.2,0.4,81,0.00,,,0.00,WUHU216HW,2013-08-17 06:19:00,
2013-08-17 02:24:00,79.9,73.6,29.99,East,90,0.0,0.4,81,0.00,,,0.00,WUHU216HW,2013-08-17 06:24:00,
2013-08-17 02:29:00,79.9,73.6,29.99,East,90,0.0,0.0,81,0.00,,,0.00,WUHU216HW,2013-08-17 06:29:00,
2013-08-17 02:34:00,79.9,73.6,30.00,East,90,0.0,0.0,81,0.00,,,0.00,WUHU216HW,2013-08-17 06:34:00,
2013-08-17 02:39:00,79.9,73.6,30.00,East,90,0.0,0.0,81,0.00,,,0.00,WUHU216HW,2013-08-17 06:39:00,
2013-08-17 02:44:00,79.9,73.6,30.00,East,90,0.0,0.0,81,0.00,,,0.00,WUHU216HW,2013-08-17 06:44:00,
2013-08-17 02:49:00,79.9,73.6,30.00,East,90,0.0,0.0,81,0.00,,,0.00,WUHU216HW,2013-08-17 06:49:00,
2013-08-17 02:54:00,79.9,73.6,29.99,East,90,0.0,0.0,81,0.00,,,0.00,WUHU216HW,2013-08-17 06:54:00,
2013-08-17 02:59:00,79.9,73.6,29.99,East,90,0.0,0.0,81,0.00,,,0.00,WUHU216HW,2013-08-17 06:59:00,
2013-08-17 03:04:00,79.7,73.5,29.99,East,90,0.0,0.0,81,0.00,,,0.00,WUHU216HW,2013-08-17 07:04:00,
2013-08-17 03:09:00,79.7,73.5,29.99,East,90,0.4,0.4,81,0.00,,,0.00,WUHU216HW,2013-08-17 07:09:00,
2013-08-17 03:14:00,79.7,73.5,29.99,East,90,0.0,0.4,81,0.00,,,0.00,WUHU216HW,2013-08-17 07:14:00,
2013-08-17 03:20:00,79.6,73.3,29.99,East,90,0.0,0.2,81,0.00,,,0.00,WUHU216HW,2013-08-17 07:20:00,
2013-08-17 03:25:00,79.7,73.5,29.99,East,90,0.0,0.0,81,0.00,,,0.00,WUHU216HW,2013-08-17 07:25:00,
2013-08-17 03:30:00,79.6,73.3,29.99,East,90,0.0,0.0,81,0.00,,,0.00,WUHU216HW,2013-08-17 07:30:00,
2013-08-17 03:35:00,79.6,73.3,29.99,East,90,0.0,0.0,81,0.00,,,0.00,WUHU216HW,2013-08-17 07:35:00,
2013-08-17 03:40:00,79.6,73.3,29.99,East,90,0.0,0.4,81,0.00,,,0.00,WUHU216HW,2013-08-17 07:40:00,
2013-08-17 03:45:00,79.6,73.6,29.99,East,90,0.0,0.4,82,0.00,,,0.00,WUHU216HW,2013-08-17 07:45:00,
2013-08-17 03:50:00,79.6,73.3,29.99,East,90,0.2,0.2,81,0.00,,,0.00,WUHU216HW,2013-08-17 07:50:00,
2013-08-17 03:55:00,79.6,73.3,29.99,East,90,0.0,0.2,81,0.00,,,0.00,WUHU216HW,2013-08-17 07:55:00,
2013-08-17 04:00:00,79.6,73.3,29.99,East,90,0.4,0.4,81,0.00,,,0.00,WUHU216HW,2013-08-17 08:00:00,
2013-08-17 04:05:00,79.6,73.3,29.99,East,90,0.0,0.4,81,0.00,,,0.00,WUHU216HW,2013-08-17 08:05:00,
2013-08-17 04:10:00,79.6,73.3,29.99,ESE,113,0.0,0.7,81,0.00,,,0.00,WUHU216HW,2013-08-17 08:10:00,
2013-08-17 04:15:00,79.6,73.3,29.99,East,90,0.0,0.7,81,0.00,,,0.00,WUHU216HW,2013-08-17 08:15:00,
2013-08-17 04:20:00,79.6,73.3,29.99,ESE,113,0.7,0.7,81,0.00,,,0.00,WUHU216HW,2013-08-17 08:20:00,
2013-08-17 04:26:00,79.6,73.3,29.99,ESE,113,0.2,0.9,81,0.00,,,0.00,WUHU216HW,2013-08-17 08:26:00,
2013-08-17 04:31:00,79.6,73.3,29.98,ESE,113,0.0,0.9,81,0.00,,,0.00,WUHU216HW,2013-08-17 08:31:00,
2013-08-17 04:36:00,79.6,73.3,29.99,ESE,113,0.4,0.4,81,0.00,,,0.00,WUHU216HW,2013-08-17 08:36:00,
2013-08-17 04:41:00,79.6,73.3,29.99,ESE,113,0.0,0.7,81,0.00,,,0.00,WUHU216HW,2013-08-17 08:41:00,
2013-08-17 04:46:00,79.6,73.3,29.98,NE,45,0.2,0.7,81,0.00,,,0.00,WUHU216HW,2013-08-17 08:46:00,
2013-08-17 04:51:00,79.6,73.3,29.98,ENE,68,0.0,0.7,81,0.00,,,0.00,WUHU216HW,2013-08-17 08:51:00,
2013-08-17 04:56:00,79.4,73.1,29.98,ENE,68,0.2,0.4,81,0.00,,,0.00,WUHU216HW,2013-08-17 08:56:00,
2013-08-17 05:01:00,79.4,73.1,29.98,East,90,0.9,0.9,81,0.00,,,0.00,WUHU216HW,2013-08-17 09:01:00,
2013-08-17 05:06:00,79.4,73.1,29.98,ESE,113,0.9,0.9,81,0.00,,,0.00,WUHU216HW,2013-08-17 09:06:00,
2013-08-17 05:11:00,79.4,73.1,29.98,ESE,113,0.0,0.9,81,0.00,,,0.00,WUHU216HW,2013-08-17 09:11:00,
2013-08-17 05:16:00,79.6,73.3,29.99,ESE,113,0.9,0.9,81,0.00,,,0.00,WUHU216HW,2013-08-17 09:16:00,
2013-08-17 05:21:00,79.4,73.1,29.98,ESE,113,0.4,0.9,81,0.00,,,0.00,WUHU216HW,2013-08-17 09:21:00,
2013-08-17 05:26:00,79.4,73.1,29.99,ESE,113,0.0,0.4,81,0.00,,,0.00,WUHU216HW,2013-08-17 09:26:00,
2013-08-17 05:31:00,79.2,72.9,29.98,ESE,113,0.0,0.0,81,0.00,,,0.00,WUHU216HW,2013-08-17 09:31:00,
2013-08-17 05:37:00,79.2,72.9,29.99,ESE,113,0.4,0.4,81,0.00,,,0.00,WUHU216HW,2013-08-17 09:37:00,
2013-08-17 05:42:00,79.4,73.1,29.99,ESE,113,0.2,0.4,81,0.00,,,0.00,WUHU216HW,2013-08-17 09:42:00,
2013-08-17 05:47:00,79.4,73.1,29.99,ESE,113,0.2,0.4,81,0.00,,,0.00,WUHU216HW,2013-08-17 09:47:00,
2013-08-17 05:52:00,79.4,73.1,29.99,ESE,113,0.0,0.4,81,0.00,,,0.00,WUHU216HW,2013-08-17 09:52:00,
2013-08-17 05:57:00,79.4,73.1,29.99,ESE,113,0.7,0.7,81,0.00,,,0.00,WUHU216HW,2013-08-17 09:57:00,
2013-08-17 06:02:00,79.4,73.1,29.99,ESE,113,0.2,0.7,81,0.00,,,0.00,WUHU216HW,2013-08-17 10:02:00,
2013-08-17 06:07:00,79.2,72.9,29.99,ESE,113,0.0,0.4,81,0.00,,,0.00,WUHU216HW,2013-08-17 10:07:00,
2013-08-17 06:12:00,79.2,72.9,29.99,ESE,113,0.0,0.7,81,0.00,,,0.00,WUHU216HW,2013-08-17 10:12:00,
2013-08-17 06:17:00,79.2,72.9,29.99,ESE,113,0.2,0.7,81,0.00,,,0.00,WUHU216HW,2013-08-17 10:17:00,
2013-08-17 06:22:00,79.2,72.9,29.99,ESE,113,0.4,0.4,81,0.00,,,0.00,WUHU216HW,2013-08-17 10:22:00,
2013-08-17 06:27:00,79.2,72.9,29.99,ESE,113,0.2,1.1,81,0.00,,,0.00,WUHU216HW,2013-08-17 10:27:00,
2013-08-17 06:32:00,79.2,72.9,29.99,ESE,113,0.2,1.1,81,0.00,,,0.00,WUHU216HW,2013-08-17 10:32:00,
2013-08-17 06:37:00,79.2,72.9,29.99,ESE,113,1.1,1.1,81,0.00,,,0.00,WUHU216HW,2013-08-17 10:37:00,
2013-08-17 06:42:00,79.2,72.9,30.00,ENE,68,1.3,1.3,81,0.00,,,0.00,WUHU216HW,2013-08-17 10:42:00,
2013-08-17 06:48:00,79.2,72.9,29.99,ESE,113,1.8,1.8,81,0.00,,,0.00,WUHU216HW,2013-08-17 10:48:00,
2013-08-17 06:53:00,79.2,72.9,29.99,ESE,113,0.9,1.8,81,0.00,,,0.00,WUHU216HW,2013-08-17 10:53:00,
2013-08-17 06:58:00,79.2,72.9,29.99,ESE,113,0.4,1.3,81,0.00,,,0.00,WUHU216HW,2013-08-17 10:58:00,
2013-08-17 07:03:00,79.2,72.9,29.99,East,90,0.9,2.0,81,0.00,,,0.00,WUHU216HW,2013-08-17 11:03:00,
2013-08-17 07:08:00,79.4,73.1,29.99,ESE,113,0.9,2.0,81,0.00,,,0.00,WUHU216HW,2013-08-17 11:08:00,
2013-08-17 07:13:00,79.4,73.1,29.99,ESE,113,1.1,1.6,81,0.00,,,0.00,WUHU216HW,2013-08-17 11:13:00,
2013-08-17 07:18:00,79.4,73.1,29.99,ESE,113,0.4,1.6,81,0.00,,,0.00,WUHU216HW,2013-08-17 11:18:00,
2013-08-17 07:23:00,79.4,73.1,29.99,ESE,113,1.3,1.3,81,0.00,,,0.00,WUHU216HW,2013-08-17 11:23:00,
2013-08-17 07:28:00,79.4,73.1,29.99,ESE,113,0.9,1.8,81,0.00,,,0.00,WUHU216HW,2013-08-17 11:28:00,
2013-08-17 07:33:00,79.4,73.1,29.99,East,90,0.9,1.8,81,0.00,,,0.00,WUHU216HW,2013-08-17 11:33:00,
2013-08-17 07:38:00,79.4,73.1,30.00,ESE,113,0.4,1.8,81,0.00,,,0.00,WUHU216HW,2013-08-17 11:38:00,
2013-08-17 07:43:00,79.4,73.1,30.00,SE,135,0.4,2.5,81,0.00,,,0.00,WUHU216HW,2013-08-17 11:43:00,
2013-08-17 07:48:00,79.4,73.1,30.00,ESE,113,0.9,2.5,81,0.00,,,0.00,WUHU216HW,2013-08-17 11:48:00,
2013-08-17 07:54:00,79.6,73.3,30.00,ESE,113,0.4,2.0,81,0.00,,,0.00,WUHU216HW,2013-08-17 11:54:00,
2013-08-17 07:59:00,79.6,73.3,30.01,SE,135,0.9,2.0,81,0.00,,,0.00,WUHU216HW,2013-08-17 11:59:00,
2013-08-17 08:04:00,79.7,73.5,30.01,ESE,113,2.5,2.5,81,0.00,,,0.00,WUHU216HW,2013-08-17 12:04:00,
2013-08-17 08:06:00,79.7,73.5,30.01,NE,45,1.1,2.5,81,0.00,,,0.00,WUHU216HW,2013-08-17 12:06:00,
2013-08-17 08:11:00,79.7,73.5,30.01,ENE,68,1.1,2.5,81,0.00,,,0.00,WUHU216HW,2013-08-17 12:11:00,
2013-08-17 08:16:00,79.9,73.6,30.01,East,90,1.8,3.1,81,0.00,,,0.00,WUHU216HW,2013-08-17 12:16:00,
2013-08-17 08:21:00,79.9,73.6,30.01,East,90,1.3,3.1,81,0.00,,,0.00,WUHU216HW,2013-08-17 12:21:00,
2013-08-17 08:26:00,80.1,73.8,30.01,ESE,113,0.9,3.4,81,0.00,,,0.00,WUHU216HW,2013-08-17 12:26:00,
2013-08-17 08:31:00,80.1,73.8,30.01,ESE,113,1.3,3.6,81,0.00,,,0.00,WUHU216HW,2013-08-17 12:31:00,
2013-08-17 08:36:00,80.1,73.8,30.01,ESE,113,0.7,3.6,81,0.00,,,0.00,WUHU216HW,2013-08-17 12:36:00,
2013-08-17 08:41:00,80.3,74.0,30.01,East,90,3.4,3.4,81,0.00,,,0.00,WUHU216HW,2013-08-17 12:41:00,
2013-08-17 08:46:00,80.5,74.2,30.01,ESE,113,2.7,3.4,81,0.00,,,0.00,WUHU216HW,2013-08-17 12:46:00,
2013-08-17 08:51:00,80.8,74.5,30.01,SE,135,1.1,4.7,81,0.00,,,0.00,WUHU216HW,2013-08-17 12:51:00,
2013-08-17 08:56:00,80.8,74.5,30.01,ESE,113,2.7,4.7,81,0.00,,,0.00,WUHU216HW,2013-08-17 12:56:00,
2013-08-17 09:02:00,81.0,74.7,30.01,ESE,113,1.6,3.1,81,0.00,,,0.00,WUHU216HW,2013-08-17 13:02:00,
2013-08-17 09:07:00,81.2,74.9,30.02,ESE,113,1.6,2.5,81,0.00,,,0.00,WUHU216HW,2013-08-17 13:07:00,
2013-08-17 09:12:00,81.4,75.4,30.02,ESE,113,0.4,2.9,82,0.00,,,0.00,WUHU216HW,2013-08-17 13:12:00,
2013-08-17 09:17:00,81.5,75.6,30.02,SE,135,0.4,3.1,82,0.00,,,0.00,WUHU216HW,2013-08-17 13:17:00,
2013-08-17 09:22:00,81.5,75.6,30.02,SE,135,0.4,0.4,82,0.00,,,0.00,WUHU216HW,2013-08-17 13:22:00,
2013-08-17 09:43:00,83.2,77.1,30.02,SE,135,3.4,3.4,82,0.01,,,0.00,WUHU216HW,2013-08-17 13:43:00,
2013-08-17 09:48:00,83.5,77.5,30.02,SSE,158,3.1,5.8,82,0.01,,,0.00,WUHU216HW,2013-08-17 13:48:00,
2013-08-17 09:53:00,83.9,77.4,30.02,SSE,158,0.9,5.8,81,0.01,,,0.00,WUHU216HW,2013-08-17 13:53:00,
2013-08-17 09:58:00,84.2,77.8,30.02,ESE,113,4.5,4.7,81,0.01,,,0.00,WUHU216HW,2013-08-17 13:58:00,
2013-08-17 10:03:00,84.6,78.1,30.02,SE,135,5.6,5.6,81,0.01,,,0.00,WUHU216HW,2013-08-17 14:03:00,
2013-08-17 10:08:00,84.8,77.9,30.02,ESE,113,2.9,5.6,80,0.01,,,0.00,WUHU216HW,2013-08-17 14:08:00,
2013-08-17 10:13:00,85.1,78.3,30.02,East,90,3.4,6.9,80,0.01,,,0.00,WUHU216HW,2013-08-17 14:13:00,
2013-08-17 10:18:00,85.3,78.5,30.03,East,90,0.7,6.9,80,0.01,,,0.00,WUHU216HW,2013-08-17 14:18:00,
2013-08-17 10:24:00,85.7,78.8,30.03,SE,135,2.5,4.9,80,0.01,,,0.00,WUHU216HW,2013-08-17 14:24:00,
2013-08-17 10:29:00,86.2,79.0,30.03,ESE,113,2.5,6.7,79,0.00,,,0.00,WUHU216HW,2013-08-17 14:29:00,
2013-08-17 10:34:00,86.6,79.4,30.03,ESE,113,2.7,6.7,79,0.00,,,0.00,WUHU216HW,2013-08-17 14:34:00,
2013-08-17 10:39:00,86.8,79.6,30.03,SE,135,2.5,5.1,79,0.00,,,0.00,WUHU216HW,2013-08-17 14:39:00,
2013-08-17 10:44:00,86.9,78.8,30.03,SE,135,5.8,6.5,77,0.00,,,0.00,WUHU216HW,2013-08-17 14:44:00,
2013-08-17 10:49:00,87.3,78.9,30.03,ESE,113,2.9,6.5,76,0.00,,,0.00,WUHU216HW,2013-08-17 14:49:00,
2013-08-17 10:54:00,87.5,79.0,30.03,SSE,158,5.1,6.3,76,0.00,,,0.00,WUHU216HW,2013-08-17 14:54:00,
2013-08-17 10:59:00,87.7,78.4,30.03,SE,135,4.0,5.4,74,0.00,,,0.00,WUHU216HW,2013-08-17 14:59:00,
2013-08-17 11:04:00,87.7,79.2,30.03,ESE,113,4.3,5.4,76,0.00,,,0.00,WUHU216HW,2013-08-17 15:04:00,
2013-08-17 11:09:00,87.8,79.4,30.03,SE,135,1.1,4.7,76,0.00,,,0.00,WUHU216HW,2013-08-17 15:09:00,
2013-08-17 11:14:00,88.0,79.5,30.03,NE,45,1.1,5.4,76,0.00,,,0.00,WUHU216HW,2013-08-17 15:14:00,
2013-08-17 11:19:00,88.2,79.3,30.03,SSE,158,3.4,5.4,75,0.00,,,0.00,WUHU216HW,2013-08-17 15:19:00,
2013-08-17 11:25:00,88.6,79.7,30.03,SSE,158,2.5,3.4,75,0.00,,,0.00,WUHU216HW,2013-08-17 15:25:00,
2013-08-17 11:30:00,89.1,80.1,30.03,ESE,113,1.8,4.7,75,0.00,,,0.00,WUHU216HW,2013-08-17 15:30:00,
2013-08-17 11:35:00,89.5,78.5,30.03,ESE,113,5.4,5.4,70,0.00,,,0.00,WUHU216HW,2013-08-17 15:35:00,
2013-08-17 11:40:00,89.6,78.7,30.03,SE,135,1.1,5.4,70,0.00,,,0.00,WUHU216HW,2013-08-17 15:40:00,
2013-08-17 11:45:00,90.0,79.0,30.03,ESE,113,4.0,4.0,70,0.00,,,0.00,WUHU216HW,2013-08-17 15:45:00,
2013-08-17 11:50:00,90.4,78.4,30.03,South,180,3.1,5.4,68,0.00,,,0.00,WUHU216HW,2013-08-17 15:50:00,
2013-08-17 11:55:00,90.7,77.8,30.02,SSE,158,3.4,5.4,66,0.00,,,0.00,WUHU216HW,2013-08-17 15:55:00,
2013-08-17 12:00:00,91.1,78.1,30.02,SE,135,3.4,5.1,66,0.00,,,0.00,WUHU216HW,2013-08-17 16:00:00,
2013-08-17 12:05:00,91.4,78.8,30.03,SSE,158,1.8,5.1,67,0.00,,,0.00,WUHU216HW,2013-08-17 16:05:00,
2013-08-17 12:10:00,91.6,78.6,30.02,SSE,158,3.4,5.8,66,0.00,,,0.00,WUHU216HW,2013-08-17 16:10:00,
2013-08-17 12:15:00,91.8,78.8,30.02,SSE,158,0.4,5.8,66,0.00,,,0.00,WUHU216HW,2013-08-17 16:15:00,
2013-08-17 12:20:00,91.6,78.6,30.02,SE,135,1.6,4.0,66,0.00,,,0.00,WUHU216HW,2013-08-17 16:20:00,
2013-08-17 12:25:00,91.6,79.0,30.02,SSE,158,4.0,4.0,67,0.00,,,0.00,WUHU216HW,2013-08-17 16:25:00,
2013-08-17 12:31:00,92.0,77.6,30.02,SE,135,3.4,4.7,63,0.00,,,0.00,WUHU216HW,2013-08-17 16:31:00,
2013-08-17 12:36:00,92.2,77.8,30.02,South,180,1.8,4.7,63,0.00,,,0.00,WUHU216HW,2013-08-17 16:36:00,
2013-08-17 12:41:00,92.2,77.2,30.01,SE,135,4.3,6.3,62,0.00,,,0.00,WUHU216HW,2013-08-17 16:41:00,
2013-08-17 12:46:00,92.0,78.0,30.01,ESE,113,1.1,6.3,64,0.00,,,0.00,WUHU216HW,2013-08-17 16:46:00,
2013-08-17 12:51:00,92.2,78.2,30.01,ESE,113,2.7,5.1,64,0.00,,,0.00,WUHU216HW,2013-08-17 16:51:00,
2013-08-17 12:56:00,92.3,77.4,30.01,SSE,158,1.8,5.1,62,0.00,,,0.00,WUHU216HW,2013-08-17 16:56:00,
2013-08-17 13:01:00,92.5,77.1,30.01,SE,135,4.7,4.7,61,0.00,,,0.00,WUHU216HW,2013-08-17 17:01:00,
2013-08-17 13:06:00,92.9,77.9,30.01,SSE,158,7.8,7.8,62,0.00,,,0.00,WUHU216HW,2013-08-17 17:06:00,
2013-08-17 13:11:00,92.9,77.5,30.01,SE,135,4.7,7.8,61,0.00,,,0.00,WUHU216HW,2013-08-17 17:11:00,
2013-08-17 13:16:00,92.9,76.5,30.01,SE,135,3.1,5.4,59,0.00,,,0.00,WUHU216HW,2013-08-17 17:16:00,
2013-08-17 13:21:00,93.1,77.2,30.00,ESE,113,2.9,5.4,60,0.00,,,0.00,WUHU216HW,2013-08-17 17:21:00,
2013-08-17 13:26:00,93.6,76.6,30.00,SSE,158,4.0,5.4,58,0.00,,,0.00,WUHU216HW,2013-08-17 17:26:00,
2013-08-17 13:32:00,93.4,75.3,30.00,SSE,158,3.1,4.3,56,0.00,,,0.00,WUHU216HW,2013-08-17 17:32:00,
2013-08-17 13:37:00,93.4,77.6,30.00,SE,135,1.3,4.3,60,0.00,,,0.00,WUHU216HW,2013-08-17 17:37:00,
2013-08-17 13:42:00,93.6,77.8,30.00,SSE,158,1.8,4.0,60,0.00,,,0.00,WUHU216HW,2013-08-17 17:42:00,
2013-08-17 13:47:00,93.8,76.8,30.00,SE,135,3.8,3.8,58,0.00,,,0.00,WUHU216HW,2013-08-17 17:47:00,
2013-08-17 13:52:00,94.0,77.5,29.99,SSE,158,0.9,4.3,59,0.00,,,0.00,WUHU216HW,2013-08-17 17:52:00,
2013-08-17 13:57:00,94.0,77.5,29.99,ESE,113,3.8,4.3,59,0.00,,,0.00,WUHU216HW,2013-08-17 17:57:00,
2013-08-17 14:02:00,94.0,76.4,29.99,ESE,113,3.4,5.1,57,0.00,,,0.00,WUHU216HW,2013-08-17 18:02:00,
2013-08-17 14:07:00,94.3,78.4,29.99,ESE,113,3.4,5.4,60,0.00,,,0.00,WUHU216HW,2013-08-17 18:07:00,
2013-08-17 14:12:00,94.7,78.1,29.99,South,180,3.4,5.4,59,0.00,,,0.00,WUHU216HW,2013-08-17 18:12:00,
2013-08-17 14:17:00,94.7,77.0,29.99,SSE,158,2.5,5.6,57,0.00,,,0.00,WUHU216HW,2013-08-17 18:17:00,
2013-08-17 14:22:00,94.3,76.8,29.99,SSE,158,1.1,5.6,57,0.00,,,0.00,WUHU216HW,2013-08-17 18:22:00,
2013-08-17 14:27:00,94.3,77.3,29.98,SE,135,0.7,5.4,58,0.00,,,0.00,WUHU216HW,2013-08-17 18:27:00,
2013-08-17 14:32:00,94.7,77.6,29.98,South,180,1.8,5.4,58,0.00,,,0.00,WUHU216HW,2013-08-17 18:32:00,
2013-08-17 14:37:00,95.0,78.5,29.98,SSE,158,2.2,3.6,59,0.00,,,0.00,WUHU216HW,2013-08-17 18:37:00,
2013-08-17 14:43:00,95.2,77.1,29.98,SE,135,4.9,4.9,56,0.00,,,0.00,WUHU216HW,2013-08-17 18:43:00,
2013-08-17 14:48:00,95.4,77.8,29.97,SE,135,4.9,4.9,57,0.00,,,0.00,WUHU216HW,2013-08-17 18:48:00,
2013-08-17 14:53:00,94.9,77.8,29.97,SSW,203,1.8,4.9,58,0.00,,,0.00,WUHU216HW,2013-08-17 18:53:00,
2013-08-17 14:58:00,95.0,78.5,29.97,SSE,158,3.4,4.9,59,0.00,,,0.00,WUHU216HW,2013-08-17 18:58:00,
2013-08-17 15:03:00,95.2,78.1,29.97,SE,135,1.8,4.9,58,0.00,,,0.00,WUHU216HW,2013-08-17 19:03:00,
2013-08-17 15:08:00,94.9,78.3,29.96,SE,135,1.1,4.0,59,0.00,,,0.00,WUHU216HW,2013-08-17 19:08:00,
2013-08-17 15:13:00,94.7,78.1,29.96,SE,135,2.9,4.0,59,0.00,,,0.00,WUHU216HW,2013-08-17 19:13:00,
2013-08-17 15:18:00,94.9,78.3,29.96,South,180,2.5,5.1,59,0.00,,,0.00,WUHU216HW,2013-08-17 19:18:00,
2013-08-17 15:23:00,94.7,78.1,29.96,SSE,158,1.8,5.1,59,0.00,,,0.00,WUHU216HW,2013-08-17 19:23:00,
2013-08-17 15:28:00,95.0,79.9,29.95,SSW,203,1.3,2.2,62,0.00,,,0.00,WUHU216HW,2013-08-17 19:28:00,
2013-08-17 15:33:00,95.2,79.2,29.95,SSE,158,3.1,4.0,60,0.00,,,0.00,WUHU216HW,2013-08-17 19:33:00,
2013-08-17 15:38:00,94.9,79.3,29.96,SSE,158,2.9,4.7,61,0.00,,,0.00,WUHU216HW,2013-08-17 19:38:00,
2013-08-17 15:43:00,94.5,77.4,29.98,East,90,5.4,9.8,58,0.00,,,0.00,WUHU216HW,2013-08-17 19:43:00,
2013-08-17 15:49:00,92.0,77.0,29.98,SE,135,7.2,9.8,62,0.01,,,0.00,WUHU216HW,2013-08-17 19:49:00,
2013-08-17 15:54:00,88.9,75.2,29.98,NE,45,4.0,12.5,64,0.07,,,0.05,WUHU216HW,2013-08-17 19:54:00,
2013-08-17 15:59:00,84.8,72.6,29.98,NNW,338,4.9,12.5,67,0.12,,,0.12,WUHU216HW,2013-08-17 19:59:00,
2013-08-17 16:04:00,82.4,71.6,29.98,ENE,68,1.1,5.8,70,0.13,,,0.14,WUHU216HW,2013-08-17 20:04:00,
2013-08-17 16:09:00,82.1,72.5,29.99,NNW,338,2.2,4.3,73,0.13,,,0.14,WUHU216HW,2013-08-17 20:09:00,
2013-08-17 16:14:00,81.7,72.2,30.00,SE,135,2.0,2.2,73,0.13,,,0.14,WUHU216HW,2013-08-17 20:14:00,
2013-08-17 16:19:00,82.1,73.4,30.00,SE,135,2.7,2.7,75,0.13,,,0.14,WUHU216HW,2013-08-17 20:19:00,
2013-08-17 16:24:00,82.1,73.4,30.00,SE,135,2.7,2.7,75,0.13,,,0.14,WUHU216HW,2013-08-17 20:24:00,
2013-08-17 16:45:00,81.9,73.6,29.98,SSW,203,0.0,0.0,76,0.18,,,0.14,WUHU216HW,2013-08-17 20:45:00,
2013-08-17 16:50:00,82.1,73.8,29.97,WSW,248,0.0,0.4,76,0.15,,,0.19,WUHU216HW,2013-08-17 20:50:00,
2013-08-17 16:55:00,82.1,73.8,29.96,NW,315,0.9,0.9,76,0.10,,,0.19,WUHU216HW,2013-08-17 20:55:00,
2013-08-17 17:00:00,81.9,74.0,29.96,NW,315,0.2,0.9,77,0.06,,,0.20,WUHU216HW,2013-08-17 21:00:00,
2013-08-17 17:05:00,81.9,74.0,29.96,NW,315,0.0,0.9,77,0.06,,,0.20,WUHU216HW,2013-08-17 21:05:00,
2013-08-17 17:11:00,81.9,74.4,29.96,NW,315,0.0,0.0,78,0.06,,,0.20,WUHU216HW,2013-08-17 21:11:00,
2013-08-17 17:16:00,82.1,75.0,29.96,South,180,0.0,0.4,79,0.06,,,0.20,WUHU216HW,2013-08-17 21:16:00,
2013-08-17 17:21:00,82.1,75.0,29.96,South,180,0.0,0.4,79,0.06,,,0.20,WUHU216HW,2013-08-17 21:21:00,
2013-08-17 17:26:00,82.1,75.0,29.96,SSE,158,0.0,0.0,79,0.06,,,0.20,WUHU216HW,2013-08-17 21:26:00,
2013-08-17 17:31:00,82.4,75.3,29.96,SSE,158,0.4,0.4,79,0.04,,,0.20,WUHU216HW,2013-08-17 21:31:00,
2013-08-17 17:36:00,82.3,75.2,29.96,SE,135,0.0,0.4,79,0.03,,,0.20,WUHU216HW,2013-08-17 21:36:00,
2013-08-17 17:41:00,82.3,75.2,29.96,SE,135,0.4,0.7,79,0.01,,,0.20,WUHU216HW,2013-08-17 21:41:00,
2013-08-17 17:48:00,82.3,75.6,29.96,SE,135,0.0,0.7,80,0.01,,,0.20,WUHU216HW,2013-08-17 21:48:00,
2013-08-17 17:55:00,82.4,75.8,29.97,SE,135,0.0,0.2,80,0.00,,,0.20,WUHU216HW,2013-08-17 21:55:00,
2013-08-17 18:01:00,82.4,75.8,29.96,SE,135,0.4,0.4,80,0.00,,,0.20,WUHU216HW,2013-08-17 22:01:00,
2013-08-17 18:08:00,82.4,75.8,29.96,East,90,0.0,0.4,80,0.00,,,0.20,WUHU216HW,2013-08-17 22:08:00,
2013-08-17 18:13:00,82.4,75.8,29.96,East,90,0.0,0.0,80,0.00,,,0.20,WUHU216HW,2013-08-17 22:13:00,
2013-08-17 18:21:00,82.3,76.0,29.98,East,90,0.0,0.9,81,0.00,,,0.20,WUHU216HW,2013-08-17 22:21:00,
2013-08-17 18:27:00,81.9,75.6,29.99,North,0,1.1,1.8,81,0.00,,,0.20,WUHU216HW,2013-08-17 22:27:00,
2013-08-17 18:33:00,81.5,75.3,29.99,North,0,1.6,2.9,81,0.00,,,0.20,WUHU216HW,2013-08-17 22:33:00,
2013-08-17 18:39:00,81.4,74.7,29.99,NNE,23,0.9,2.9,80,0.00,,,0.20,WUHU216HW,2013-08-17 22:39:00,
2013-08-17 18:44:00,81.4,75.1,29.99,NNE,23,1.6,1.8,81,0.00,,,0.20,WUHU216HW,2013-08-17 22:44:00,
2013-08-17 18:49:00,81.0,74.3,30.00,East,90,1.1,2.0,80,0.00,,,0.20,WUHU216HW,2013-08-17 22:49:00,
2013-08-17 18:55:00,81.2,74.9,29.99,NNE,23,3.4,3.4,81,0.00,,,0.20,WUHU216HW,2013-08-17 22:55:00,
2013-08-17 19:01:00,81.4,74.7,29.99,NNE,23,0.0,3.4,80,0.00,,,0.20,WUHU216HW,2013-08-17 23:01:00,
2013-08-17 19:06:00,81.7,75.4,29.99,NNE,23,1.1,1.1,81,0.00,,,0.20,WUHU216HW,2013-08-17 23:06:00,
2013-08-17 19:12:00,81.7,75.4,29.99,North,0,0.4,1.1,81,0.00,,,0.20,WUHU216HW,2013-08-17 23:12:00,
2013-08-17 19:17:00,81.9,75.6,29.99,NE,45,0.2,1.6,81,0.00,,,0.20,WUHU216HW,2013-08-17 23:17:00,
2013-08-17 19:23:00,82.1,75.8,29.99,NNE,23,0.0,0.7,81,0.00,,,0.20,WUHU216HW,2013-08-17 23:23:00,
2013-08-17 19:28:00,82.1,75.8,29.99,NNE,23,0.0,0.4,81,0.00,,,0.20,WUHU216HW,2013-08-17 23:28:00,
2013-08-17 19:34:00,82.3,76.0,29.99,North,0,0.0,0.9,81,0.00,,,0.20,WUHU216HW,2013-08-17 23:34:00,
2013-08-17 19:40:00,82.3,76.0,29.99,North,0,1.1,1.1,81,0.00,,,0.20,WUHU216HW,2013-08-17 23:40:00,
2013-08-17 19:46:00,82.1,75.8,29.99,North,0,0.4,1.1,81,0.00,,,0.20,WUHU216HW,2013-08-17 23:46:00,
2013-08-17 19:52:00,82.3,76.0,30.00,NNW,338,0.4,0.9,81,0.00,,,0.20,WUHU216HW,2013-08-17 23:52:00,
2013-08-17 19:58:00,82.1,75.8,30.00,North,0,0.9,2.0,81,0.00,,,0.20,WUHU216HW,2013-08-17 23:58:00,
2013-08-17 20:04:00,81.9,75.6,30.01,NNE,23,0.4,2.0,81,0.00,,,0.20,WUHU216HW,2013-08-18 00:04:00,
2013-08-17 20:09:00,81.7,75.4,30.01,NNE,23,1.3,1.6,81,0.00,,,0.20,WUHU216HW,2013-08-18 00:09:00,
2013-08-17 20:15:00,81.7,75.4,30.01,NNE,23,1.1,1.6,81,0.00,,,0.20,WUHU216HW,2013-08-18 00:15:00,
2013-08-17 20:20:00,81.7,75.4,30.01,North,0,1.1,1.1,81,0.00,,,0.20,WUHU216HW,2013-08-18 00:20:00,
2013-08-17 20:26:00,81.7,75.4,30.01,NNE,23,0.0,1.1,81,0.00,,,0.20,WUHU216HW,2013-08-18 00:26:00,
2013-08-17 20:32:00,81.9,75.6,30.01,North,0,0.2,0.4,81,0.00,,,0.20,WUHU216HW,2013-08-18 00:32:00,
2013-08-17 20:38:00,81.9,75.6,30.01,North,0,0.4,1.3,81,0.00,,,0.20,WUHU216HW,2013-08-18 00:38:00,
2013-08-17 20:44:00,81.9,76.0,30.01,North,0,0.0,0.4,82,0.00,,,0.20,WUHU216HW,2013-08-18 00:44:00,
2013-08-17 20:51:00,81.7,75.8,30.01,North,0,0.7,1.1,82,0.00,,,0.20,WUHU216HW,2013-08-18 00:51:00,
2013-08-17 20:57:00,81.7,75.8,30.02,North,0,0.9,1.1,82,0.00,,,0.20,WUHU216HW,2013-08-18 00:57:00,
2013-08-17 21:04:00,81.7,75.8,30.02,NNW,338,0.4,1.1,82,0.00,,,0.20,WUHU216HW,2013-08-18 01:04:00,
2013-08-17 21:10:00,81.7,75.8,30.02,North,0,1.1,1.1,82,0.00,,,0.20,WUHU216HW,2013-08-18 01:10:00,
2013-08-17 21:15:00,81.7,75.8,30.02,North,0,0.0,1.1,82,0.00,,,0.20,WUHU216HW,2013-08-18 01:15:00,
2013-08-17 21:21:00,81.7,75.8,30.02,North,0,0.0,0.4,82,0.00,,,0.20,WUHU216HW,2013-08-18 01:21:00,
2013-08-17 21:27:00,81.7,75.8,30.02,North,0,0.0,0.0,82,0.00,,,0.20,WUHU216HW,2013-08-18 01:27:00,
2013-08-17 21:33:00,81.7,75.8,30.03,North,0,0.0,0.4,82,0.00,,,0.20,WUHU216HW,2013-08-18 01:33:00,
2013-08-17 21:39:00,81.5,75.6,30.03,North,0,0.0,0.4,82,0.00,,,0.20,WUHU216HW,2013-08-18 01:39:00,
2013-08-17 21:44:00,81.4,75.1,30.03,NNE,23,1.1,1.1,81,0.00,,,0.20,WUHU216HW,2013-08-18 01:44:00,
2013-08-17 21:50:00,81.2,74.9,30.03,NNE,23,0.9,1.1,81,0.00,,,0.20,WUHU216HW,2013-08-18 01:50:00,
2013-08-17 21:56:00,81.0,74.7,30.03,NE,45,0.7,1.1,81,0.00,,,0.20,WUHU216HW,2013-08-18 01:56:00,
2013-08-17 22:01:00,81.0,74.7,30.03,NNE,23,1.3,1.6,81,0.00,,,0.20,WUHU216HW,2013-08-18 02:01:00,
2013-08-17 22:07:00,81.0,74.7,30.03,ENE,68,0.4,1.6,81,0.00,,,0.20,WUHU216HW,2013-08-18 02:07:00,
2013-08-17 22:14:00,81.0,74.7,30.03,NE,45,0.4,0.4,81,0.00,,,0.20,WUHU216HW,2013-08-18 02:14:00,
2013-08-17 22:20:00,80.8,74.5,30.03,NNE,23,0.4,1.1,81,0.00,,,0.20,WUHU216HW,2013-08-18 02:20:00,
2013-08-17 22:25:00,80.6,74.4,30.03,NNE,23,0.2,1.3,81,0.00,,,0.20,WUHU216HW,2013-08-18 02:25:00,
2013-08-17 22:30:00,80.6,74.4,30.03,North,0,1.1,1.3,81,0.00,,,0.20,WUHU216HW,2013-08-18 02:30:00,
2013-08-17 22:36:00,80.6,74.4,30.03,East,90,0.0,1.1,81,0.00,,,0.20,WUHU216HW,2013-08-18 02:36:00,
2013-08-17 22:42:00,80.6,74.4,30.03,ENE,68,0.4,1.1,81,0.00,,,0.20,WUHU216HW,2013-08-18 02:42:00,
2013-08-17 22:48:00,80.5,74.2,30.03,NNE,23,0.4,0.9,81,0.00,,,0.20,WUHU216HW,2013-08-18 02:48:00,
2013-08-17 22:53:00,80.5,74.2,30.04,ENE,68,0.7,0.7,81,0.00,,,0.20,WUHU216HW,2013-08-18 02:53:00,
2013-08-17 23:00:00,80.5,74.2,30.04,NNE,23,0.9,1.1,81,0.00,,,0.20,WUHU216HW,2013-08-18 03:00:00,
2013-08-17 23:06:00,80.5,74.2,30.05,NNE,23,0.0,1.1,81,0.00,,,0.20,WUHU216HW,2013-08-18 03:06:00,
2013-08-17 23:07:00,80.5,74.2,30.05,NNE,23,0.0,0.0,81,0.00,,,0.20,WUHU216HW,2013-08-18 03:07:00,
2013-08-17 23:11:00,80.5,74.2,30.05,NNE,23,0.0,0.2,81,0.00,,,0.20,WUHU216HW,2013-08-18 03:11:00,
2013-08-17 23:16:00,80.5,74.2,30.05,NNE,23,0.0,0.0,81,0.00,,,0.20,WUHU216HW,2013-08-18 03:16:00,
2013-08-17 23:39:00,80.3,74.0,30.05,NNE,23,0.0,0.0,81,0.00,,,0.20,WUHU216HW,2013-08-18 03:39:00,
2013-08-17 23:45:00,80.3,74.0,30.05,NNE,23,0.0,0.0,81,0.00,,,0.20,WUHU216HW,2013-08-18 03:45:00,
2013-08-17 23:51:00,80.1,73.8,30.05,NNE,23,0.0,0.0,81,0.00,,,0.20,WUHU216HW,2013-08-18 03:51:00,
2013-08-17 23:57:00,80.1,73.8,30.05,NNE,23,0.0,0.0,81,0.00,,,0.20,WUHU216HW,2013-08-18 03:57:00,